User: anonymous   Login
Location: Albany
(35.0000°S, 118.0000°E)
Time: 08:10:37
(UTC-04:00)
Language:

Atlas Centaur 2 - Orbit

View from above orbital plane
View from above orbital plane
View from above satellite
View from above satellite

Ground track
Ground track

The orbit data is extracted from the following two-line orbital elements,

1 00694U 63047A   14302.82011475  .00002081  00000-0  26595-3 0  6300
2 00694 030.3587 048.3301 0596200 339.8845 167.3940 14.00018642547763
Epoch (UTC): 29 October 2014 19:40:57
Eccentricity: 0.0596200
inclination: 30.3587°
perigee height: 460 km
apogee height: 1327 km
right ascension of ascending node: 48.3301°
argument of perigee: 339.8845°
revolutions per day: 14.00018642
mean anomaly at epoch: 167.3940°
orbit number at epoch: 54776

The dashed part of the orbit path shows where the satellite is in the earth's shadow,  

DLR